This demonstration page uses our WeatherBlox Daily Observations layout. Learn more.

Left ArrowRight Arrow

39.01783, -85.05884

Hourly Observations for March 30, 2022

Temp ( °F °C ) Dew Point ( °F °C ) Humidity (%) Winds ( mph kmh ) Pressure ( in mb ) Visibility ( mi km ) Precip ( " mm )
12:52 am 00:52 Mostly Cloudy 44 6.7 16 -8.9 32 32 ESE 8 13 29.95 1014 10 16 0.00 0.00
1:52 am 01:52 Mostly Cloudy 44 6.7 16 -8.9 32 32 ESE 12 19 29.92 1013 10 16 0.00 0.00
2:52 am 02:52 Mostly Clear 43 6.1 17 -8.3 35 35 ESE 8 13 29.91 1013 10 16 0.00 0.00
3:52 am 03:52 Partly Cloudy 44 6.7 18 -7.8 35 35 ESE 8 13 29.89 1012 10 16 0.00 0.00
4:52 am 04:52 Partly Cloudy 44 6.7 19 -7.2 37 37 SE 10 17 29.86 1011 10 16 0.00 0.00
5:52 am 05:52 Mostly Clear 46 7.8 23 -5 40 40 SE 13 20 29.83 1010 10 16 0.00 0.00
6:52 am 06:52 Mostly Cloudy 47 8.3 26 -3.3 44 44 SSE 13 20 29.82 1010 10 16 0.00 0.00
7:52 am 07:52 Mostly Cloudy 48 8.9 30 -1.1 50 50 SSE 15 24 29.81 1010 10 16 0.00 0.00
8:52 am 08:52 Mostly Cloudy 51 10.6 34 1.1 52 52 SSE 13 20 29.78 1009 10 16 0.00 0.00
9:52 am 09:52 Mostly Cloudy 61 16.1 43 6.1 52 52 S 17 28 29.75 1008 10 16 0.00 0.00
10:52 am 10:52 Mostly Cloudy 68 20 49 9.4 51 51 S 16 26 29.73 1007 10 16 0.00 0.00
11:52 am 11:52 Mostly Cloudy 72 22.2 50 10 46 46 SSW 23 37 29.72 1006 10 16 0.00 0.00
12:52 pm 12:52 Mostly Cloudy 75 23.9 48 8.9 39 39 S 22 35 29.68 1005 10 16 0.00 0.00
1:52 pm 13:52 Mostly Cloudy 80 26.7 41 5 25 25 S 28 44 29.64 1004 10 16 0.00 0.00
2:52 pm 14:52 Cloudy 78 25.6 37 2.8 23 23 S 18 30 29.60 1002 10 16 0.00 0.00
3:52 pm 15:52 Cloudy 79 26.1 36 2.2 21 21 S 25 41 29.53 1000 10 16 0.00 0.00
4:52 pm 16:52 Cloudy 76 24.4 37 2.8 24 24 S 26 43 29.47 998 10 16 0.00 0.00
5:52 pm 17:52 Cloudy 76 24.4 40 4.4 27 27 S 26 43 29.43 997 10 16 0.00 0.00
6:52 pm 18:52 Mostly Cloudy 77 25 38 3.3 24 24 S 26 43 29.40 996 10 16 0.00 0.00
7:52 pm 19:52 Cloudy 76 24.4 37 2.8 24 24 S 22 35 29.39 995 10 16 0.00 0.00
8:52 pm 20:52 Cloudy 76 24.4 39 3.9 26 26 S 31 50 29.37 995 10 16 0.00 0.00
9:52 pm 21:52 Cloudy 75 23.9 44 6.7 33 33 S 33 54 29.35 994 10 16 0.00 0.00
10:52 pm 22:52 Mostly Cloudy 74 23.3 45 7.2 36 36 S 29 46 29.32 993 10 16 0.00 0.00
11:52 pm 23:52 Cloudy with Light Rain 75 23.9 46 7.8 36 36 S 21 33 29.33 993 10 16 0.00 0.00

Powered by AerisWeather